Date,TemperatureHighF,TemperatureAvgF,TemperatureLowF,DewpointHighF,DewpointAvgF,DewpointLowF,HumidityHigh,HumidityAvg,HumidityLow,PressureMaxIn,PressureMinIn,WindSpeedMaxMPH,WindSpeedAvgMPH,GustSpeedMaxMPH,PrecipitationSumIn
2012-12-1,53.2,45.9,39.6,23.4,18.9,10.6,45,34,24,30.00,29.81,28,12,44,0.00
2012-12-2,49.6,42.0,35.4,24.8,19.1,16.2,54,40,28,30.01,29.82,26,13,35,0.00
2012-12-3,50.0,42.4,35.2,28.2,21.7,11.1,57,44,28,30.13,29.79,23,11,31,0.00
2012-12-4,50.4,38.1,25.3,16.0,10.0,2.3,55,33,14,30.39,30.14,22,7,30,0.00
2012-12-5,55.6,45.0,35.4,24.1,16.5,9.3,48,33,16,30.33,29.88,22,10,35,0.00
2012-12-6,46.0,40.4,36.0,26.8,24.9,21.4,63,54,45,29.88,29.77,17,8,26,0.00
2012-12-7,42.8,37.8,34.0,22.1,18.3,14.5,54,45,35,29.88,29.78,24,11,33,0.00
2012-12-8,41.4,33.7,27.0,24.4,18.5,13.1,90,55,35,29.84,29.69,28,13,37,0.00
2012-12-9,28.2,12.5,-0.2,22.6,8.9,-5.4,89,85,75,30.42,29.75,13,4,18,0.00
2012-12-10,26.1,14.7,3.4,10.6,3.6,-3.1,75,62,48,30.48,30.31,27,8,31,0.00
2012-12-11,27.3,21.2,12.9,9.9,5.5,0.1,57,50,36,30.31,30.18,23,10,30,0.00
2012-12-12,33.1,26.5,17.6,13.5,9.7,5.0,57,49,43,30.22,30.12,27,13,36,0.00
2012-12-13,37.9,31.1,25.5,13.6,10.5,8.4,51,42,33,30.24,30.04,18,9,31,0.00
2012-12-14,33.1,30.1,27.0,26.2,18.8,9.1,88,64,41,30.04,29.58,25,8,36,0.01
2012-12-15,30.6,25.3,22.3,19.9,18.3,16.7,81,75,59,29.93,29.81,22,11,27,0.00
2012-12-16,28.9,24.1,18.7,17.1,11.6,7.9,77,59,46,30.08,29.86,20,8,29,0.00
2012-12-17,32.2,27.4,21.9,20.7,15.1,8.2,68,59,53,30.06,29.89,26,15,35,0.00
2012-12-18,29.7,26.8,23.4,19.9,17.7,15.3,79,68,60,29.91,29.70,21,11,30,0.00
2012-12-19,28.4,17.7,2.7,23.2,10.4,-9.6,90,73,48,30.46,29.56,16,4,19,0.00
2012-12-20,28.6,15.4,1.6,0.3,-5.7,-10.7,57,40,27,30.82,30.47,17,5,22,0.00
2012-12-21,35.1,26.5,16.3,4.5,-1.2,-6.0,44,30,23,30.75,30.39,20,9,26,0.00
2012-12-22,40.8,29.5,19.0,5.2,-2.0,-6.5,36,26,16,30.38,30.16,18,7,25,0.00
2012-12-23,35.8,28.9,23.0,17.6,8.6,-3.5,55,42,29,30.17,30.07,22,11,31,0.00
2012-12-24,30.9,25.4,16.5,16.3,13.2,10.6,84,60,49,30.07,29.76,19,10,29,0.00
2012-12-25,28.9,18.2,12.4,13.5,10.9,7.0,90,74,52,30.28,29.88,14,3,20,0.03
2012-12-26,23.7,19.4,15.1,15.1,10.9,7.0,82,69,59,30.24,29.84,23,12,32,0.00
2012-12-27,27.0,22.0,14.4,12.7,9.1,7.0,76,58,45,29.98,29.80,18,7,21,0.00
2012-12-28,23.2,13.8,6.3,8.6,1.4,-4.5,88,59,38,30.53,29.98,19,5,24,0.00
2012-12-29,23.5,16.6,6.4,0.0,-3.8,-10.7,59,41,21,30.60,30.34,26,12,34,0.00
2012-12-30,32.5,22.6,16.5,9.3,3.6,-4.5,59,43,33,30.34,30.08,24,9,27,0.00
2012-12-31,22.5,15.1,8.8,14.9,10.6,5.7,89,82,63,30.29,30.04,5,1,12,0.06